User: anonymous   Login
Location: Unspecified
(0.0000°N, 0.0000°E)
Time: 17:12:56
(UTC+01:00)
Language:

Cosmos 1626 Rocket - Orbit

View from above orbital plane
View from above orbital plane
View from above satellite
View from above satellite

Ground track
Ground track

The orbit data is extracted from the following two-line orbital elements,

1 15495U 85009B   15027.21508658  .00000293  00000-0  32659-4 0    24
2 15495 082.5254 284.0725 0019145 329.7930 030.2180 14.83441773620670
Epoch (UTC): 27 January 2015 05:09:43
Eccentricity: 0.0019145
inclination: 82.5254°
perigee height: 605 km
apogee height: 632 km
right ascension of ascending node: 284.0725°
argument of perigee: 329.7930°
revolutions per day: 14.83441773
mean anomaly at epoch: 30.2180°
orbit number at epoch: 62067

The dashed part of the orbit path shows where the satellite is in the earth's shadow,  

DLR